Location: Fort Wayne
(41.1310°N, 85.1290°W)
Time: 15:48:54
(UTC-04:00)

Helios 1B - Visible Passes

Search period start: 28 April 2016 00:00
Search period end: 08 May 2016 00:00
Orbit: 621 x 624 km, 98.1° (Epoch: 27 April)

Date Brightness Start Highest point End Pass type
(mag) Time Alt. Az. Time Alt. Az. Time Alt. Az.
28 Apr 6.9 00:28:42 19° NNE 00:28:42 19° NNE 00:30:19 10° NNE visible
28 Apr 7.3 02:05:55 13° NW 02:05:55 13° NW 02:06:28 10° NW visible
29 Apr 6.7 00:46:59 23° NNE 00:46:59 23° NNE 00:48:49 10° N visible
30 Apr 6.7 01:05:15 25° N 01:05:15 25° N 01:07:08 10° N visible
01 May 6.7 01:23:32 24° NNW 01:23:32 24° NNW 01:25:19 10° NNW visible
02 May 7.0 00:04:36 14° NE 00:04:36 14° NE 00:05:58 10° NNE visible
02 May 6.8 01:41:49 21° NNW 01:41:49 21° NNW 01:43:22 10° NNW visible
03 May 6.8 00:22:53 19° NE 00:22:53 19° NE 00:24:49 10° NNE visible
03 May 7.0 02:00:06 17° NW 02:00:06 17° NW 02:01:16 10° NNW visible
04 May 6.5 00:41:09 25° NNE 00:41:09 25° NNE 00:43:22 10° N visible
04 May 7.3 02:18:23 12° NW 02:18:23 12° NW 02:18:54 10° NW visible
05 May 6.4 00:59:26 29° N 00:59:26 29° N 01:01:44 10° N visible
06 May 6.3 01:17:43 30° NNW 01:17:43 30° NNW 01:19:57 10° NNW visible
06 May 7.0 23:58:47 13° NE 23:58:47 13° NE 00:00:15 10° NNE visible
07 May 6.5 01:36:00 27° NNW 01:36:00 27° NNW 01:38:03 10° NNW visible
